Погода в Бичурино

Россия / Чувашская Республика     55°51′50″N   47°47′21″E
темп.,
°C
ветер,
м/с
пор.,
м/с
влажн.,
%
обл.,
%
осадки,
мм/ч
давл.,
гПа
погр.,
м
13 апреля, вт
вт1300:00+3вюв389598 0.0 1036120
03:00+4юв3499100 0.0 103648
06:00+4юв36100100 0.0 1035123
09:00+7ююв3799100 0.0 1035202
12:00+14ю477474 0.0 1033468
15:00+16ю476164 0.0 1032808
18:00+12ююв487358 0.0 1031107
21:00+9ю46805 0.0 103166
14 апреля, ср
ср1400:00+8ю34825 0.0 103138
03:00+7ю338577 0.0 103032
06:00+7ю348260 0.0 103056
09:00+13ююв46595 0.0 1029351
12:00+17ююв57415 0.0 1027822
15:00+17ююв57455 0.0 10251011
18:00+14ю36685 0.0 1024119
21:00+11ю36804 0.0 102486
15 апреля, чт
чт1500:00+10ю34855 0.0 102354
03:00+8ю22861 0.0 102215
06:00+9ююв22872 0.0 102236
09:00+14ю34680 0.0 1021423
12:00+17ю34535 0.0 10201227
15:00+18ю334549 0.0 10181580
18:00+15ююв225627 0.0 101822
21:00+13ююв226291 0.0 101821
16 апреля, пт
пт1600:00+12ююв116688 0.0 101713
03:00+11с116898 0.0 101720
06:00+9ссв4892100 0.0 1018272
09:00+8св5787100 0.0 1019346
12:00+10св5778100 0.0 1020649
15:00+12ссв6768100 0.0 1020996
18:00+9ссв687466 0.0 1021704
21:00+7св597198 0.0 1023697
17 апреля, сб
сб1700:00+4ссв39795 0.0 1023200
03:00+2ссв37755 0.0 1024124
06:00+2ссв410720 0.0 1025261
09:00+7ссв69490 0.0 10261048
12:00+8ссв89414 0.0 10271620
15:00+8ссв89320 0.0 10281814
18:00+6ссв694179 0.0 1029735
21:00+2ссв375126 0.0 1031133